Station GTLM4 - Grand Traverse Light, MI Image indicating link to RSS feed of recent meteorological observations for station GTLM4


Conditions at GTLM4 as of
(5:40 am EDT)
0940 GMT on 07/21/2024:
     

Click on the graph icon in the table below to see a time series plot of the last five days of that observation.

5-day plot - Wind Direction Wind Direction (WDIR):NNE ( 30 deg true )
5-day plot - Wind Speed Wind Speed (WSPD): 7.0 kts
5-day plot - Wind Gust Wind Gust (GST): 8.9 kts
5-day plot - Atmospheric Pressure Atmospheric Pressure (PRES):30.11 in
5-day plot - Air Temperature Air Temperature (ATMP): 66.0 °F
5-day plot - Wind Speed at 10 Meters Wind Speed at 10 meters (WSPD10M): 7.8 kts
5-day plot - Wind Speed at 20 Meters Wind Speed at 20 meters (WSPD20M): 7.8 kts
5-day plot -  Wind Speed, Wind Gust and Atmospheric Pressure Combined plot of Wind Speed, Gust, and Air Pressure
Previous observations
TIME
(EDT)
5-day plot - Wind Direction
WDIR
 
5-day plot - Wind Speed
WSPD
kts
5-day plot - Wind Gust
GST
kts
5-day plot - Wave Height
WVHT
ft
5-day plot - Dominant Wave Period
DPD
sec
5-day plot - Average Wave Period
APD
sec
5-day plot - Mean Wave Direction
MWD
 
5-day plot - Atmospheric Pressure
PRES
in
5-day plot - Pressure Tendency
PTDY
in
5-day plot - Air Temperature
ATMP
°F
5-day plot - Water Temperature
WTMP
°F
5-day plot - Dew Point
DEWP
°F
5-day plot - Salinity
SAL
psu
5-day plot - Visibility
VIS
nmi
5-day plot - Tide (above MLLW)
TIDE
ft
2024-07-21 05:30 amNNE 8.0 8.9----30.10- 66.2-----
2024-07-21 05:20 amNNE 8.9 9.9----30.10- 66.4-----
2024-07-21 05:10 amNNE 8.9 9.9----30.10- 66.4-----
2024-07-21 05:00 amNNE 8.0 8.9----30.10+0.00 66.6-----
2024-07-21 04:50 amNNE 7.0 7.0----30.10- 66.6-----
2024-07-21 04:40 amNNE 8.0 8.9----30.09- 66.7-----
2024-07-21 04:30 amNNE 6.0 7.0----30.09- 66.6-----
2024-07-21 04:20 amNNE 6.0 9.9----30.09- 66.7-----
2024-07-21 04:10 amNNE 7.0 7.0----30.09- 66.9-----
2024-07-21 04:00 amNNE 6.0 8.0----30.09-0.01 67.1-----
2024-07-21 03:50 amNNE 7.0 8.0----30.10- 67.1-----
2024-07-21 03:40 am NE 7.0 8.9----30.10- 67.3-----
2024-07-21 03:30 am NE 8.0 9.9----30.10- 67.3-----
2024-07-21 03:20 am NE 8.0 13.0----30.10- 67.3-----
2024-07-21 03:10 am NE 8.9 9.9----30.10- 67.6-----
2024-07-21 03:00 amNNE 8.9 9.9----30.10+0.00 67.6-----
2024-07-21 02:50 amNNE 8.9 9.9----30.10- 67.6-----
2024-07-21 02:40 am NE 8.9 11.1----30.10- 67.8-----
2024-07-21 02:30 am NE 9.9 12.0----30.10- 67.8-----
2024-07-21 02:20 am NE 11.1 13.0----30.10- 67.8-----
2024-07-21 02:10 am NE 12.0 14.0----30.10- 67.8-----
2024-07-21 02:03 am NE 12.0 17.1----30.10- 67.8-----
2024-07-21 02:00 am NE 12.0 13.0----30.10+0.01 67.8-----
2024-07-21 01:50 am NE 12.0 14.0----30.10- 67.6-----
2024-07-21 01:40 am NE 13.0 15.0----30.10- 67.8-----
2024-07-21 01:30 am NE 14.0 17.1----30.10- 68.0-----
2024-07-21 01:20 am NE 15.0 17.1----30.10- 67.8-----
2024-07-21 01:10 amNNE 15.0 17.1----30.10- 68.0-----
2024-07-21 01:03 am NE 14.0 17.1----30.10- 68.2-----
2024-07-21 01:00 am NE 15.0 17.1----30.10+0.02 68.2-----
2024-07-21 12:50 am NE 14.0 15.9----30.10- 68.2-----
2024-07-21 12:40 am NE 9.9 13.0----30.10- 68.4-----
2024-07-21 12:30 am NE 11.1 15.9----30.10- 68.5-----
2024-07-21 12:20 amNNE 14.0 15.9----30.10- 68.9-----
2024-07-21 12:10 amNNE 6.0 8.0----30.10- 68.4-----
2024-07-21 12:02 amNNW 5.1 11.1----30.10- 68.5-----
2024-07-21 12:00 amNNW 5.1 8.0----30.10+0.03 68.5-----
2024-07-20 11:50 pmWNW 7.0 8.9----30.10- 68.9-----
2024-07-20 11:40 pm W 7.0 9.9----30.10- 69.3-----
2024-07-20 11:30 pm W 8.9 11.1----30.09- 69.4-----
2024-07-20 11:20 pm W 8.9 11.1----30.10- 69.4-----
2024-07-20 11:10 pm W 9.9 11.1----30.09- 69.6-----
2024-07-20 11:02 pm W 8.9 14.0----30.09- 69.8-----
2024-07-20 11:00 pmWSW 9.9 13.0----30.09+0.03 69.8-----
2024-07-20 10:50 pmWSW 12.0 13.0----30.08- 69.8-----
2024-07-20 10:40 pm W 12.0 13.0----30.09- 70.0-----
2024-07-20 10:30 pmWSW 11.1 13.0----30.09- 69.8-----
2024-07-20 10:20 pmWSW 11.1 13.0----30.09- 69.8-----
2024-07-20 10:10 pmWSW 12.0 14.0----30.09- 70.0-----
2024-07-20 10:02 pmWSW 12.0 17.1----30.08- 70.2-----
2024-07-20 10:00 pmWSW 12.0 15.0----30.08+0.02 70.2-----
2024-07-20 09:50 pmWSW 12.0 14.0----30.08- 70.2-----
2024-07-20 09:40 pmWSW 13.0 15.9----30.08- 70.3-----
2024-07-20 09:30 pmWSW 14.0 15.9----30.07- 70.3-----
2024-07-20 09:20 pmWSW 15.0 17.1----30.03- 70.3-----
2024-07-20 09:10 pmWSW 15.0 15.9----30.07- 70.3-----
2024-07-20 09:01 pmWSW 12.0 18.1----30.07- 70.5-----
2024-07-20 09:00 pmWSW 12.0 15.9----30.07+0.02 70.5-----
2024-07-20 08:50 pmWSW 14.0 17.1----30.06- 70.7-----
2024-07-20 08:40 pmWSW 15.9 18.1----30.06- 70.9-----
2024-07-20 08:30 pmWSW 15.0 17.1----30.06- 70.7-----
2024-07-20 08:20 pmWSW 14.0 15.0----30.06- 70.9-----
2024-07-20 08:10 pmWSW 15.0 17.1----30.06- 71.2-----
2024-07-20 08:01 pmWSW 15.0 18.1----30.06- 71.8-----
2024-07-20 08:00 pmWSW 15.0 18.1----30.06+0.00 71.8-----
2024-07-20 07:50 pmWSW 15.0 17.1----30.06- 72.1-----
2024-07-20 07:40 pmWSW 13.0 15.9----30.06- 72.1-----
2024-07-20 07:30 pmWSW 14.0 17.1----30.06- 72.3-----
2024-07-20 07:20 pmWSW 14.0 15.9----30.06- 72.3-----
2024-07-20 07:10 pmWSW 15.0 18.1----30.06- 72.5-----
2024-07-20 07:00 pmWSW 15.9 18.1----30.06- 73.0-----
2024-07-20 06:50 pmWSW 15.0 17.1----30.06- 73.9-----
2024-07-20 06:40 pmWSW 14.0 15.9----30.06- 75.4-----
2024-07-20 06:30 pmWSW 14.0 17.1----30.06- 75.6-----
2024-07-20 06:00 pmWSW 15.0 18.1----30.05-0.02 74.1-----
2024-07-20 05:40 pmWSW 15.0 17.1----30.06- 73.9-----
2024-07-20 05:30 pmWSW 15.0 17.1----30.06- 73.8-----
2024-07-20 05:20 pmWSW 15.0 18.1----30.06- 74.7-----
2024-07-20 05:10 pmWSW 15.0 18.1----30.06- 74.8-----
2024-07-20 05:00 pmWSW 15.0 19.0----30.06- 75.7-----
2024-07-20 04:50 pmWSW 15.0 17.1----30.06- 77.0-----
2024-07-20 04:40 pmWSW 15.0 15.9----30.06- 78.3-----
2024-07-20 04:30 pmWSW 15.9 18.1----30.06- 77.4-----
2024-07-20 04:20 pmWSW 15.0 18.1----30.06- 77.7-----
2024-07-20 04:10 pmWSW 15.9 18.1----30.06- 77.9-----
2024-07-20 04:00 pmWSW 15.9 19.0----30.06-0.01 78.4-----
2024-07-20 03:50 pmWSW 17.1 19.0----30.06- 77.5-----
2024-07-20 03:40 pmWSW 17.1 19.0----30.06- 78.1-----
2024-07-20 03:30 pmWSW 15.0 18.1----30.06- 78.4-----
2024-07-20 03:20 pmWSW 15.0 19.0----30.06- 79.3-----
2024-07-20 03:10 pmWSW 15.9 19.0----30.07- 78.4-----
2024-07-20 03:00 pmWSW 15.0 15.9----30.07+0.00 78.6-----
2024-07-20 02:50 pmWSW 14.0 18.1----30.07- 77.4-----
2024-07-20 02:40 pmWSW 15.9 18.1----30.07- 76.6-----
2024-07-20 02:30 pmWSW 15.9 18.1----30.07- 76.8-----
2024-07-20 02:20 pmWSW 15.0 17.1----30.07- 77.2-----
2024-07-20 02:10 pmWSW 15.0 18.1----30.07- 76.6-----
2024-07-20 02:00 pmWSW 15.9 18.1----30.07-0.01 75.9-----
2024-07-20 01:50 pmWSW 17.1 18.1----30.07- 76.6-----
2024-07-20 01:40 pmWSW 15.9 17.1----30.07- 76.6-----
2024-07-20 01:30 pmWSW 15.0 17.1----30.07- 76.5-----
2024-07-20 01:21 pmWSW 13.0 15.9----30.07- 76.3-----
2024-07-20 01:20 pmWSW 13.0 15.0----30.07- 76.3-----
2024-07-20 01:10 pmWSW 14.0 15.9----30.07- 76.3-----
2024-07-20 01:00 pmWSW 14.0 15.9----30.07+0.00 75.4-----
2024-07-20 12:50 pmWSW 15.0 15.9----30.07- 75.4-----
2024-07-20 12:40 pmWSW 13.0 15.9----30.07- 75.0-----
2024-07-20 12:30 pmWSW 14.0 15.9----30.07- 74.5-----
2024-07-20 12:20 pmWSW 14.0 18.1----30.07- 74.8-----
2024-07-20 12:10 pmWSW 14.0 15.9----30.08- 74.8-----
2024-07-20 12:00 pmWSW 14.0 17.1----30.07+0.00 74.5-----
2024-07-20 11:50 amWSW 15.9 17.1----30.08- 74.5-----
2024-07-20 11:40 amWSW 15.9 18.1----30.07- 73.9-----
2024-07-20 11:30 amWSW 15.9 18.1----30.07- 73.8-----
2024-07-20 11:20 amWSW 15.9 19.0----30.07- 73.2-----
2024-07-20 11:10 amWSW 17.1 18.1----30.08- 72.9-----
2024-07-20 11:00 amWSW 17.1 18.1----30.08+0.01 72.5-----
2024-07-20 10:50 amWSW 15.9 18.1----30.07- 72.3-----
2024-07-20 10:40 amWSW 17.1 19.0----30.07- 72.0-----
2024-07-20 10:30 amWSW 15.9 17.1----30.07- 71.8-----
2024-07-20 10:20 amWSW 15.9 19.0----30.07- 71.6-----
2024-07-20 10:10 amWSW 15.9 18.1----30.07- 71.6-----
2024-07-20 10:00 amWSW 15.0 19.0----30.07+0.02 71.4-----
2024-07-20 09:50 amWSW 15.9 19.0----30.07- 71.4-----
2024-07-20 09:40 amWSW 17.1 19.0----30.07- 71.2-----
2024-07-20 09:30 amWSW 17.1 19.0----30.07- 71.4-----
2024-07-20 09:20 amWSW 17.1 19.0----30.07- 71.4-----
2024-07-20 09:10 amWSW 15.9 18.1----30.07- 71.2-----
2024-07-20 09:09 amWSW 15.0 19.0----30.07- 71.1-----
2024-07-20 09:00 amWSW 15.9 19.0----30.07+0.02 70.9-----
2024-07-20 08:50 amWSW 17.1 19.0----30.07- 70.9-----
2024-07-20 08:40 amWSW 15.9 19.0----30.07- 70.5-----
2024-07-20 08:30 amWSW 15.9 19.0----30.07- 70.2-----
2024-07-20 08:20 amWSW 17.1 19.0----30.07- 70.0-----
2024-07-20 08:10 amWSW 17.1 19.0----30.07- 69.8-----
2024-07-20 08:08 amWSW 15.9 19.0----30.07- 69.6-----
2024-07-20 08:00 amWSW 15.9 18.1----30.07+0.02 69.4-----
2024-07-20 07:50 amWSW 17.1 19.0----30.06- 69.6-----
2024-07-20 07:40 amWSW 15.0 19.0----30.06- 69.3-----
2024-07-20 07:30 amWSW 15.9 18.1----30.06- 69.4-----
2024-07-20 07:20 amWSW 15.9 17.1----30.06- 69.1-----
2024-07-20 07:10 amWSW 15.9 18.1----30.06- 68.7-----
2024-07-20 07:08 amWSW 15.9 21.0----30.05- 68.7-----
2024-07-20 07:00 amWSW 15.9 19.0----30.05+0.01 68.5-----
2024-07-20 06:50 amWSW 15.9 20.0----30.06- 68.5-----
2024-07-20 06:40 amWSW 18.1 21.0----30.06- 68.4-----
2024-07-20 06:30 amWSW 18.1 21.0----30.05- 68.4-----
2024-07-20 06:20 amWSW 19.0 21.0----30.06- 68.5-----
2024-07-20 06:10 amWSW 18.1 22.0----30.06- 68.5-----
2024-07-20 06:08 amWSW 19.0 22.9----30.06- 68.5-----
2024-07-20 06:00 amWSW 19.0 22.0----30.05+0.00 68.5-----
2024-07-20 05:50 amWSW 19.0 22.0----30.05- 68.7-----